Location: Pasarilla del Rebollar
(40.6790°N, 5.0062°W)
Time: 10:33:05
(UTC+00:00)

H-2A R/B - Pass Details

Date: 22 April 2026
Orbit: 730 x 829 km, 98.3° (Epoch: 20 May)

Event Time Altitude Azimuth Distance (km) Brightness Sun altitude
Rises 04:38:52 0° 357° (N) 3,249 5.6 -10.1°
Reaches altitude 10° 04:41:42 10° 341° (NNW) 2,336 4.6 -9.6°
Maximum altitude 04:45:20 20° 296° (WNW) 1,766 3.5 -9.0°
Enters shadow 04:49:01 10° 251° (WSW) 2,367 3.9 -8.3°
